Date String (YYYY-MM-DD hh:mm:ss) UTC,Instrument flags,absolute air pressure of the measurement (hPa),sample flow rate (lpm),inlet stack bypass flow (lpm),air temperature of the measurement (°C),ambient temperature measured by the external sensor (°C),aerosol sample conditioner tube jacket temperature (°C),OPC LED temperature (°C),internal box temperature (°C),relative humidity of the measurement (%),span deviation,mass concentration of particles derived from Lorenz-Mie calculation of OPC scattering (μg/m³),mass concentration of particles derived from Lorenz-Mie calculation of OPC scattering (μg/m³),mass concentration of particles derived from Lorenz-Mie calculation of OPC scattering (μg/m³)
DateTimeUTC,F1_M11,P_M11,Q1_M11,Q2_M11,T1_M11,T2_M11,T3_M11,T4_M11,T5_M11,U1_M11,ZSPAN_M11,X0_M11,X2_M11,X1_M11
2023-08-01 11:00:00,SystemResetWarning,0833.8,5.00,000.00,029.5,027.8,000.0,038.0,031.0,28.1,0000.0,0003.46,0001.50,0000.95
2023-08-01 11:01:00,SystemResetWarning,0833.8,5.00,000.00,029.5,027.9,000.0,038.0,031.0,27.5,0000.0,0003.28,0001.41,0000.92
2023-08-01 11:02:00,SystemResetWarning,0833.8,4.99,000.00,029.5,028.0,000.0,038.0,031.0,27.6,0000.0,0003.12,0001.39,0000.90
2023-08-01 11:03:00,SystemResetWarning,0833.8,4.99,000.00,029.6,028.1,000.0,038.0,031.1,27.8,0000.0,0002.21,0001.33,0000.87
2023-08-01 11:04:00,SystemResetWarning,0833.8,5.00,000.00,029.6,028.1,000.0,038.1,031.1,27.3,0000.0,0002.08,0001.28,0000.84
2023-08-01 11:05:00,SystemResetWarning,0833.8,5.00,000.00,029.6,028.2,000.0,038.1,031.1,27.2,0000.0,0002.04,0001.23,0000.82
2023-08-01 11:06:00,SystemResetWarning,0833.8,5.01,000.00,029.6,028.2,000.0,038.1,031.2,27.2,0000.0,0001.75,0001.13,0000.77
2023-08-01 11:07:00,SystemResetWarning,0833.8,5.00,000.00,029.6,028.3,000.0,038.1,031.2,27.4,0000.0,0001.61,0001.04,0000.72
2023-08-01 11:08:00,SystemResetWarning,0833.8,4.99,000.00,029.7,028.3,000.0,038.1,031.2,27.4,0000.0,0002.03,0001.00,0000.69
2023-08-01 11:09:00,SystemResetWarning,0833.8,4.99,000.00,029.7,028.4,000.0,038.1,031.3,27.5,0000.0,0002.68,0000.99,0000.67
2023-08-01 11:10:00,SystemResetWarning,0833.8,4.99,000.00,029.7,028.4,000.0,038.1,031.3,27.6,0000.0,0003.87,0000.98,0000.66
2023-08-01 11:11:00,SystemResetWarning,0833.8,5.01,000.00,029.7,028.5,000.0,038.1,031.3,27.7,0000.0,0003.96,0000.94,0000.64
2023-08-01 11:12:00,SystemResetWarning,0833.8,5.01,000.00,029.8,028.5,000.0,038.1,031.3,27.4,0000.0,0004.52,0000.92,0000.62
2023-08-01 11:13:00,SystemResetWarning,0833.7,5.00,000.00,029.8,028.5,000.0,038.2,031.3,27.3,0000.0,0004.47,0000.88,0000.59
2023-08-01 11:14:00,SystemResetWarning,0833.7,5.00,000.00,029.8,028.5,000.0,038.2,031.4,27.0,0000.0,0004.50,0000.87,0000.58
2023-08-01 11:15:00,SystemResetWarning,0833.6,5.00,000.00,029.8,028.6,000.0,038.2,031.4,26.8,0000.0,0004.64,0000.87,0000.56
2023-08-01 11:16:00,SystemResetWarning,0833.6,5.00,000.00,029.8,028.5,000.0,038.2,031.4,26.4,0000.0,0004.53,0000.85,0000.55
2023-08-01 11:17:00,SystemResetWarning,0833.5,4.98,000.00,029.8,027.0,000.0,038.1,031.3,26.6,0000.0,0004.51,0000.84,0000.55
2023-08-01 11:18:00,SystemResetWarning,0833.4,5.01,000.00,029.7,025.7,000.0,038.0,031.0,26.8,0000.0,0004.66,0000.86,0000.55
2023-08-01 11:19:00,SystemResetWarning,0833.4,5.01,000.00,029.6,025.5,000.0,038.0,030.8,27.2,0000.0,0004.80,0000.84,0000.55
2023-08-01 11:20:00,SystemResetWarning,0833.3,5.00,000.00,029.5,025.8,000.0,038.0,030.7,27.6,0000.0,0004.43,0000.83,0000.56
2023-08-01 11:21:00,SystemResetWarning,0833.3,5.00,000.00,029.5,026.2,000.0,038.0,030.7,27.9,0000.0,0003.62,0000.83,0000.56
2023-08-01 11:22:00,SystemResetWarning,0833.2,4.99,000.00,029.5,026.6,000.0,038.0,030.8,28.1,0000.0,0003.22,0000.82,0000.57
2023-08-01 11:23:00,SystemResetWarning,0833.2,5.01,000.00,029.5,026.9,000.0,038.0,030.9,27.8,0000.0,0002.66,0000.80,0000.58
2023-08-01 11:24:00,SystemResetWarning,0833.3,5.01,000.00,029.5,027.2,000.0,038.0,030.9,27.3,0000.0,0002.46,0000.80,0000.59
2023-08-01 11:25:00,SystemResetWarning,0833.5,5.00,000.00,029.5,027.5,000.0,038.0,031.0,27.3,0000.0,0002.52,0000.81,0000.59
2023-08-01 11:26:00,SystemResetWarning,0833.4,5.00,000.00,029.5,027.7,000.0,038.0,031.0,28.5,0000.0,0002.37,0000.79,0000.59
2023-08-01 11:27:00,SystemResetWarning,0833.6,4.99,000.00,029.5,027.9,000.0,038.0,031.1,29.6,0000.0,0002.46,0000.80,0000.60
2023-08-01 11:28:00,SystemResetWarning,0833.6,5.00,000.00,029.5,028.0,000.0,038.0,031.1,29.5,0000.0,0002.58,0000.83,0000.60
2023-08-01 11:29:00,SystemResetWarning,0833.6,4.99,000.00,029.6,028.1,000.0,038.0,031.1,28.9,0000.0,0002.53,0000.84,0000.60
2023-08-01 11:30:00,SystemResetWarning,0833.7,5.00,000.00,029.6,028.2,000.0,038.0,031.2,28.8,0000.0,0002.36,0000.83,0000.60
2023-08-01 11:31:00,SystemResetWarning,0833.7,5.00,000.00,029.6,028.3,000.0,038.1,031.2,28.7,0000.0,0001.67,0000.85,0000.59
2023-08-01 11:32:00,SystemResetWarning,0833.7,5.00,000.00,029.6,028.4,000.0,038.1,031.2,28.5,0000.0,0001.71,0000.85,0000.57
2023-08-01 11:33:00,SystemResetWarning,0833.7,5.00,000.00,029.7,028.4,000.0,038.1,031.3,28.4,0000.0,0001.57,0000.83,0000.55
2023-08-01 11:34:00,SystemResetWarning,0833.6,5.00,000.00,029.7,028.5,000.0,038.1,031.3,28.7,0000.0,0001.52,0000.83,0000.55
2023-08-01 11:35:00,SystemResetWarning,0833.7,5.00,000.00,029.7,028.5,000.0,038.1,031.3,28.3,0000.0,0001.54,0000.83,0000.54
2023-08-01 11:36:00,SystemResetWarning,0833.7,5.00,000.00,029.7,028.6,000.0,038.1,031.3,26.5,0000.0,0001.50,0000.80,0000.53
2023-08-01 11:37:00,SystemResetWarning,0833.6,5.00,000.00,029.8,028.6,000.0,038.2,031.4,26.1,0000.0,0001.38,0000.79,0000.52
2023-08-01 11:38:00,SystemResetWarning,0833.7,5.00,000.00,029.8,028.7,000.0,038.2,031.4,26.7,0000.0,0001.30,0000.77,0000.51
2023-08-01 11:39:00,SystemResetWarning,0833.7,4.99,000.00,029.8,027.8,000.0,038.1,031.4,28.1,0000.0,0001.15,0000.72,0000.51
2023-08-01 11:40:00,SystemResetWarning,0833.8,5.00,000.00,029.8,026.1,000.0,038.0,031.1,27.9,0000.0,0001.12,0000.71,0000.51
2023-08-01 11:41:00,SystemResetWarning,0833.8,5.00,000.00,029.7,025.6,000.0,037.9,030.9,28.6,0000.0,0001.16,0000.72,0000.50
2023-08-01 11:42:00,SystemResetWarning,0833.9,5.00,000.00,029.5,025.7,000.0,038.0,030.7,28.9,0000.0,0001.29,0000.74,0000.50
2023-08-01 11:43:00,SystemResetWarning,0834.0,5.01,000.00,029.5,026.1,000.0,038.0,030.7,30.0,0000.0,0001.18,0000.73,0000.51
2023-08-01 11:44:00,SystemResetWarning,0834.3,4.99,000.00,029.5,026.5,000.0,038.0,030.8,30.3,0000.0,0001.28,0000.75,0000.52
2023-08-01 11:45:00,SystemResetWarning,0834.5,4.99,000.00,029.5,026.8,000.0,038.0,030.9,31.0,0000.0,0001.26,0000.73,0000.52
2023-08-01 11:46:00,SystemResetWarning,0834.8,5.00,000.00,029.5,027.1,000.0,038.0,030.9,31.7,0000.0,0001.26,0000.73,0000.52
2023-08-01 11:47:00,SystemResetWarning,0835.0,5.01,000.00,029.5,027.4,000.0,038.0,031.0,32.3,0000.0,0001.23,0000.73,0000.53
2023-08-01 11:48:00,SystemResetWarning,0835.2,5.01,000.00,029.5,027.6,000.0,038.0,031.0,32.1,0000.0,0001.34,0000.74,0000.54
2023-08-01 11:49:00,SystemResetWarning,0835.0,5.00,000.00,029.5,027.8,000.0,038.0,031.1,32.1,0000.0,0001.38,0000.76,0000.55
2023-08-01 11:50:00,SystemResetWarning,0835.1,4.99,000.00,029.5,027.9,000.0,038.0,031.1,32.4,0000.0,0001.47,0000.79,0000.55
2023-08-01 11:51:00,SystemResetWarning,0835.0,4.99,000.00,029.5,028.0,000.0,038.0,031.1,32.4,0000.0,0001.42,0000.78,0000.55
2023-08-01 11:52:00,SystemResetWarning,0835.1,5.00,000.00,029.6,028.1,000.0,038.0,031.1,32.3,0000.0,0001.43,0000.76,0000.55
2023-08-01 11:53:00,SystemResetWarning,0835.1,5.01,000.00,029.6,028.2,000.0,038.0,031.2,32.1,0000.0,0001.30,0000.72,0000.57
2023-08-01 11:54:00,SystemResetWarning,0835.2,5.01,000.00,029.6,028.3,000.0,038.0,031.2,31.7,0000.0,0001.31,0000.74,0000.59
2023-08-01 11:55:00,SystemResetWarning,0835.3,5.00,000.00,029.6,028.3,000.0,038.0,031.2,31.5,0000.0,0001.34,0000.74,0000.59
2023-08-01 11:56:00,SystemResetWarning,0835.3,5.00,000.00,029.7,028.4,000.0,038.1,031.3,31.7,0000.0,0002.60,0000.74,0000.60
2023-08-01 11:57:00,SystemResetWarning,0835.3,4.99,000.00,029.7,028.4,000.0,038.1,031.3,31.9,0000.0,0002.76,0000.76,0000.60
2023-08-01 11:58:00,SystemResetWarning,0835.5,5.00,000.00,029.7,028.5,000.0,038.1,031.3,33.4,0000.0,0002.88,0000.80,0000.60
2023-08-01 11:59:00,SystemResetWarning,0835.5,5.01,000.00,029.7,028.5,000.0,038.1,031.3,34.3,0000.0,0003.04,0000.87,0000.62
